Plymouth, MA

1:31 AM EST on November 20, 2017 (GMT -0500)
Plymouth Municipal

Weather History for KPYM - February, 2014

Change the Weather History Date:

Sunday, February 2, 2014

  Actual Average Record
Temperature  
Mean Temperature 44 °F -  
Max Temperature 53 °F 40 °F 63 °F (1989)
Min Temperature 35 °F 18 °F -8 °F (1961)
Degree Days  
Heating Degree Days 21    
Moisture  
Dew Point 35 °F    
Average Humidity 80    
Maximum Humidity 96    
Minimum Humidity 55    
Precipitation  
Precipitation 0.00 in - - ()
Sea Level Pressure  
Sea Level Pressure 29.94 in    
Wind  
Wind Speed 4 mph (SW)    
Max Wind Speed 9 mph    
Max Gust Speed -    
Visibility 7 miles    
Events Fog    
Averages and records for this station are not official NWS values.
T = Trace of Precipitation, MM = Missing Value Source: NWS Daily Summary

Daily Weather History Graph

Daily Weather History Graph

Search for Another Location

Airport or City:

Trip Planner

Search our weather history database for the weather conditions in past years. The results will help you decide how hot, cold, wet, or windy it might be!

Date:

Astronomy

Feb. 02, 2014 Rise Set
Actual Time 6:54 AM EST 4:59 PM EST
Civil Twilight 6:25 AM EST 5:28 PM EST
Nautical Twilight 5:51 AM EST 6:02 PM EST
Astronomical Twilight 5:19 AM EST 6:34 PM EST
Moon 8:15 AM EST (2/2) 8:44 PM EST (2/2)
Length of Visible Light 11h 03m
Length of Day
10h 04m
Waxing Crescent, 11% of the Moon is Illuminated
Feb 2
Waxing Crescent
Feb 6
First Quarter
Feb 14
Full
Feb 22
Last Quarter
Mar 1
New

Hourly Weather History & Observations

Time (EST) Temp. Windchill Dew Point Humidity Pressure Visibility Wind Dir Wind Speed Gust Speed Precip Events Conditions
12:22 AM 35.1 °F 31.0 °F 28.9 °F 78% 30.02 in 10.0 mi SSW 4.6 mph - N/A   Overcast
12:49 AM 35.6 °F 29.9 °F 30.2 °F 81% 30.02 in 10.0 mi SSW 6.9 mph - N/A   Overcast
12:52 AM 36.0 °F 30.3 °F 30.0 °F 79% 30.02 in 10.0 mi SW 6.9 mph - N/A   Overcast
1:52 AM 37.0 °F 33.3 °F 32.0 °F 82% 29.99 in 10.0 mi SW 4.6 mph - N/A   Overcast
2:22 AM 37.0 °F 34.5 °F 32.0 °F 82% 29.98 in 10.0 mi WSW 3.5 mph - N/A   Overcast
2:52 AM 37.0 °F - 32.0 °F 82% 29.96 in 10.0 mi Calm Calm - N/A   Overcast
3:52 AM 39.0 °F - 34.0 °F 82% 29.92 in 10.0 mi Calm Calm - N/A   Overcast
4:39 AM 39.0 °F 36.8 °F 34.0 °F 82% 29.91 in 9.0 mi Variable 3.5 mph - N/A   Overcast
4:52 AM 37.9 °F 35.5 °F 34.0 °F 86% 29.91 in 8.0 mi SSW 3.5 mph - N/A   Overcast
5:30 AM 37.9 °F 34.4 °F 35.1 °F 89% 29.90 in 1.8 mi SW 4.6 mph - N/A   Overcast
5:40 AM 37.9 °F 34.4 °F 35.1 °F 89% 29.90 in 0.5 mi SW 4.6 mph - N/A Fog Fog
5:52 AM 37.9 °F 34.4 °F 36.0 °F 93% 29.91 in 0.5 mi SW 4.6 mph - N/A Fog Fog
6:52 AM 37.9 °F - 36.0 °F 93% 29.90 in 0.5 mi Calm Calm - N/A Fog Fog
7:04 AM 39.0 °F - 37.0 °F 93% 29.90 in 0.2 mi Calm Calm - N/A Fog Fog
7:52 AM 39.0 °F - 37.9 °F 96% 29.90 in 0.2 mi Calm Calm - N/A Fog Fog
8:52 AM 39.9 °F 35.8 °F 37.9 °F 93% 29.91 in 0.2 mi SW 5.8 mph - N/A Fog Fog
9:07 AM 39.9 °F 35.1 °F 37.9 °F 93% 29.91 in 0.5 mi SW 6.9 mph - N/A Fog Fog
9:35 AM 39.9 °F 35.1 °F 37.9 °F 93% 29.91 in 2.0 mi SW 6.9 mph - N/A   Overcast
9:44 AM 41.0 °F 39.0 °F 37.9 °F 89% 29.90 in 6.0 mi SSW 3.5 mph - N/A   Overcast
9:52 AM 39.9 °F 36.7 °F 37.9 °F 93% 29.91 in 5.0 mi Variable 4.6 mph - N/A   Overcast
10:43 AM 42.1 °F 38.4 °F 37.9 °F 85% 29.91 in 10.0 mi SW 5.8 mph - N/A   Scattered Clouds
10:52 AM 43.0 °F 39.5 °F 39.0 °F 86% 29.92 in 10.0 mi SSW 5.8 mph - N/A   Partly Cloudy
11:52 AM 48.9 °F - 37.9 °F 66% 29.89 in 10.0 mi SSW 6.9 mph - N/A   Clear
12:52 PM 53.1 °F - 37.0 °F 55% 29.88 in 10.0 mi WSW 9.2 mph - N/A   Clear
1:52 PM 52.0 °F - 37.0 °F 57% 29.89 in 10.0 mi WSW 8.1 mph - N/A   Overcast
2:52 PM 46.0 °F 43.9 °F 36.0 °F 68% 29.91 in 10.0 mi SSE 4.6 mph - N/A   Overcast
3:52 PM 44.1 °F - 35.1 °F 71% 29.92 in 10.0 mi Calm Calm - N/A   Overcast
4:52 PM 42.1 °F - 35.1 °F 76% 29.90 in 10.0 mi Calm Calm - N/A   Overcast
5:52 PM 41.0 °F 39.0 °F 34.0 °F 76% 29.96 in 10.0 mi WNW 3.5 mph - N/A   Overcast
6:52 PM 41.0 °F - 34.0 °F 76% 29.96 in 10.0 mi Calm Calm - N/A   Overcast
7:52 PM 43.0 °F 38.8 °F 35.1 °F 74% 30.00 in 10.0 mi WNW 6.9 mph - N/A   Overcast
8:52 PM 44.1 °F 39.5 °F 34.0 °F 68% 30.01 in 10.0 mi NW 8.1 mph - N/A   Overcast
9:52 PM 43.0 °F 39.5 °F 32.0 °F 65% 30.03 in 10.0 mi NW 5.8 mph - N/A   Overcast
10:52 PM 42.1 °F 38.4 °F 32.0 °F 67% 30.04 in 10.0 mi NW 5.8 mph - N/A   Overcast
11:52 PM 41.0 °F 37.1 °F 32.0 °F 70% 30.03 in 10.0 mi NNW 5.8 mph - N/A   Overcast